Ketchikan, AK

5:43 AM AKST on December 18, 2018 (GMT -0900)
Ketchikan International

Weather History for PAKT - May, 2018

Change the Weather History Date:

Monday, May 28, 2018

  Actual Average Record
Temperature  
Mean Temperature 46 °F -  
Max Temperature 50 °F 58 °F 83 °F (1958)
Min Temperature 42 °F 43 °F 23 °F (1971)
Degree Days  
Heating Degree Days 19    
Moisture  
Dew Point 42 °F    
Average Humidity 86    
Maximum Humidity 93    
Minimum Humidity 76    
Precipitation  
Precipitation 0.12 in - - ()
Sea Level Pressure  
Sea Level Pressure 30.16 in    
Wind  
Wind Speed 7 mph (SE)    
Max Wind Speed 13 mph    
Max Gust Speed 20 mph    
Visibility 10 miles    
Events Rain    
Averages and records for this station are not official NWS values.
T = Trace of Precipitation, MM = Missing Value Source: NWS Daily Summary

Daily Weather History Graph

Daily Weather History Graph

Search for Another Location

Airport or City:

Astronomy

May. 28, 2018 Rise Set
Actual Time 4:17 AM AKDT 9:11 PM AKDT
Civil Twilight 3:23 AM AKDT 10:06 PM AKDT
Nautical Twilight 1:46 AM AKDT 11:45 PM AKDT
Astronomical Twilight Sun does not rise Sun does not rise
Moon 8:08 PM AKDT (5/28) 4:30 AM AKDT (5/28)
Length of Visible Light 18h 42m
Length of Day
16h 54m
Waxing Gibbous, 99% of the Moon is Illuminated
May 28
Waxing Gibbous
May 29
Full
Jun 6
Last Quarter
Jun 13
New
Jun 20
First Quarter

Hourly Weather History & Observations

Time (AKDT) Temp. Windchill Dew Point Humidity Pressure Visibility Wind Dir Wind Speed Gust Speed Precip Events Conditions
12:36 AM 44.1 °F 41.5 °F 42.1 °F 93% 30.02 in 10.0 mi South 4.6 mph - N/A   Overcast
12:53 AM 44.1 °F 41.5 °F 42.1 °F 93% 30.03 in 10.0 mi South 4.6 mph - N/A   Overcast
1:53 AM 44.1 °F 41.5 °F 41.0 °F 89% 30.06 in 10.0 mi SSE 4.6 mph - 0.00 in Rain Light Rain
2:53 AM 42.1 °F 40.2 °F 39.0 °F 89% 30.07 in 10.0 mi South 3.5 mph - 0.00 in   Mostly Cloudy
3:53 AM 43.0 °F 39.5 °F 39.9 °F 89% 30.09 in 10.0 mi SE 5.8 mph - 0.01 in Rain Light Rain
4:16 AM 44.1 °F 39.5 °F 41.0 °F 89% 30.09 in 10.0 mi SE 8.1 mph - 0.02 in Rain Light Rain
4:53 AM 44.1 °F 39.5 °F 41.0 °F 89% 30.10 in 9.0 mi SE 8.1 mph - 0.04 in Rain Light Rain
5:04 AM 44.1 °F 39.0 °F 41.0 °F 89% 30.10 in 10.0 mi SE 9.2 mph - 0.00 in Rain Light Rain
5:50 AM 44.6 °F 40.7 °F 42.8 °F 93% 30.12 in 6.0 mi SE 6.9 mph - 0.03 in Rain Light Rain
5:53 AM 45.0 °F 40.6 °F 42.1 °F 90% 30.12 in 5.0 mi SE 8.1 mph - 0.04 in Rain Light Rain
6:11 AM 44.6 °F 41.4 °F 42.8 °F 93% 30.12 in 9.0 mi SE 5.8 mph - N/A Rain Light Rain
6:53 AM 46.4 °F 42.4 °F 42.8 °F 87% 30.13 in 9.0 mi SE 8.1 mph - N/A Rain Light Rain
7:53 AM 46.4 °F 41.5 °F 44.6 °F 93% 30.15 in 10.0 mi SE 10.4 mph - N/A   Mostly Cloudy
8:53 AM 48.2 °F - 42.8 °F 82% 30.17 in 10.0 mi SE 10.4 mph - N/A   Mostly Cloudy
9:53 AM 46.4 °F 41.1 °F 42.8 °F 87% 30.19 in 10.0 mi SE 11.5 mph - N/A Rain Light Rain
10:53 AM 48.2 °F - 42.8 °F 82% 30.20 in 10.0 mi ESE 11.5 mph - N/A   Mostly Cloudy
11:53 AM 50.0 °F - 42.8 °F 76% 30.21 in 10.0 mi SE 12.7 mph - N/A   Mostly Cloudy
12:53 PM 48.2 °F - 42.8 °F 82% 30.22 in 10.0 mi SE 9.2 mph - N/A Rain Light Rain
1:53 PM 48.2 °F - 41.0 °F 76% 30.22 in 9.0 mi SE 11.5 mph 19.6 mph N/A Rain Light Rain
2:53 PM 48.2 °F - 42.8 °F 82% 30.23 in 10.0 mi ESE 11.5 mph - N/A   Overcast
3:53 PM 50.0 °F - 42.8 °F 76% 30.22 in 10.0 mi SE 12.7 mph - N/A   Mostly Cloudy
4:53 PM 48.2 °F - 42.8 °F 82% 30.21 in 10.0 mi SE 11.5 mph - N/A   Overcast
5:53 PM 48.2 °F - 41.0 °F 76% 30.20 in 10.0 mi SSE 6.9 mph - N/A   Overcast
6:53 PM 48.2 °F - 41.0 °F 76% 30.20 in 10.0 mi SSE 5.8 mph - N/A   Overcast
7:53 PM 46.4 °F 43.5 °F 42.8 °F 87% 30.19 in 10.0 mi SSE 5.8 mph - N/A Rain Light Rain
8:53 PM 46.9 °F - 43.0 °F 86% 30.19 in 10.0 mi SE 8.1 mph - 0.00 in Rain Light Rain
9:17 PM 46.0 °F 41.9 °F 43.0 °F 89% 30.18 in 10.0 mi SE 8.1 mph - 0.01 in Rain Light Rain
9:25 PM 46.0 °F 41.9 °F 43.0 °F 89% 30.18 in 10.0 mi SE 8.1 mph - 0.01 in Rain Light Rain
9:53 PM 46.9 °F - 43.0 °F 86% 30.19 in 9.0 mi SE 9.2 mph - 0.02 in Rain Light Rain
10:50 PM 46.4 °F 41.9 °F 42.8 °F 87% 30.18 in 10.0 mi SE 9.2 mph - 0.01 in   Overcast
10:53 PM 46.0 °F 41.4 °F 42.1 °F 86% 30.19 in 10.0 mi SE 9.2 mph - 0.01 in   Overcast
11:18 PM 46.0 °F 40.6 °F 43.0 °F 89% 30.18 in 10.0 mi SE 11.5 mph - N/A   Overcast
11:39 PM 46.0 °F 41.4 °F 43.0 °F 89% 30.18 in 10.0 mi SSE 9.2 mph - 0.00 in Rain Light Rain
11:53 PM 46.0 °F 41.0 °F 42.1 °F 86% 30.18 in 10.0 mi SE 10.4 mph 16.1 mph 0.00 in Rain Light Rain